SCOUT X-4 DEB, 2011

Orbit data source: Space-Track

SCOUT X-4 DEB, 2011 is space debris in LEO originally from a launch on Thu, 29 Apr 1965 UTC launched from the Wallops Island (WLPIS). Debris objects in space refer to the collection of defunct objects orbiting the Earth. Examples of debris include non-operational satellites, rocket bodies, and fragments generated from explosions, collisions, or faulty payload assembly.

Loading next visibility...
Identifier
2011, 1965-032D
Orbit
LEO
Country
Flag of USUS
Related business
Manufacturer
Unknown
Mission
Spacecraft
Bus & Motor
Unknown
Mass
Unknown
Launch date (UTC)
1965-04-29 (60 years ago)
Launch vehicle
Unknown
Launch site
Wallops Island (WLPIS)
Object type
Payload
Rocket body
Debris
Shape & HBR
Unknown
Radar Cross Section
Small (<0.1 m²)

Expand to show TLE details & history
Last TLE update: 6 days ago

TLE from 6 days ago
0 SCOUT X-4 DEB
1 02011U 65032D   25237.95370377  .00000717  00000-0  12309-2 0  9992
2 02011  41.1991 308.4461 0233421 193.0225 347.5571 13.40541764937695
Epoch: 2025-08-25T22:53Z
TLE epoch observation values (Epoch: 2025-08-25T22:53:20.005Z)
Latitude
-0.04124°
Longitude
170.70724°
Altitude
936.477 km
Speed
7.469 km/s
True Right ascension
08h 33m 58s
True Declination
0° 02' 28"
Sunlit
Object was in daylight at epoch
Visualization orbit readout
Latitude
Unknown
Longitude
Unknown
Altitude
Unknown
Speed
Unknown
Apparent Right ascension
Unknown
Apparent Declination
Unknown
Sunlit
N/A
Visualization observer readout
Local Sidereal Time
02:55:00
Azimuth
Unknown
Elevation
Unknown
Doppler factor
Unknown
Orbital elements
Apogee altitude
1,284.096 km
Perigee altitude
934.55 km
Semi-major axis
7,487.46 km
Eccentricity
0.02334
Inclination
41.1991°
RAAN
308.4461°
Arg. of periapsis
193.0225°
True anomaly
346.9639°
Mean anomaly
347.5571°
Eccentric anomaly
347.26222°
Mean motion
3.34997 °/min
Orbital period
107.46 mins
BSTAR
0.0012309
Loading maneuver chart data...
Computing Atmospheric mass density...
Loading historical data...
Loading historical data...
Loading historical data...
Loading historical data...
Loading historical data...
Loading historical data...
Loading historical data...
Other satellites on launch #32 in the year 1965 (1965-04-29 UTC)

Documentation

Showing up to 5 results
|